Other Public Products
Issued by NWS Grand Forks, ND

Home | Current Version | Previous Version | Text Only | Print | Product List | Glossary Off
Versions: 1 2 3 4 5 6 7 8 9 10 11 12 13 14 15 16 17 18 19 20 21 22 23 24 25 26 27 28 29 30 31 32 33 34 35 36 37 38 39 40 41 42 43 44 45 46 47 48 49 50

000
FPUS83 KFGF 220531
OPUFGF
PRAIRIE TO PINES WEATHER ROUNDUP
NATIONAL WEATHER SERVICE EASTERN NORTH DAKOTA/GRAND FORKS ND
1200 AM CDT FRI AUG 22 2014

 **SATELLITE DATA USED TO AUGMENT SKY COVER AT AUTOMATED STATIONS**
 *****  WEATHER ACROSS EASTERN NORTH DAKOTA  *****

CITY           SKY/WX    TMP DP  RH WIND       PRES   REMARKS
GRAND FORKS    PTCLDY    68  67  96 CALM      29.86S FOG
GRAND FORKS AF MOCLDY    68  68 100 N7        29.89R
GRAND CITY NWS   N/A     59 N/A N/A N5          N/A
BUXTON           N/A     69  69  98 NW3         N/A
DEVILS LAKE    CLOUDY    66  63  88 N12       29.92S
FARGO          CLEAR     67  65  93 CALM      29.87R
WAHPETON ARPT  CLEAR     68  66  94 CALM      29.87F
$$

 *****  WEATHER ACROSS CENTRAL AND WESTERN NORTH DAKOTA  *****

CITY           SKY/WX    TMP DP  RH WIND       PRES   REMARKS
JAMESTOWN      CLEAR     68  65  90 N6        29.91R
BISMARCK       MOCLDY    67  63  87 W3        29.95S
MINOT          CLOUDY    63  60  90 NW7       29.98S
MINOT AFB      CLOUDY    64  63  94 N8        29.98F
GARRISON         N/A     65  63  93 N6        29.98S
WILLISTON      CLOUDY    64  57  78 N8        30.02S
DICKINSON      HVY RAIN  63  60  90 NE13      30.00F FOG
HETTINGER      HVY RAIN  62  58  86 N14       30.05R FOG
$$

 *****  OTHER OBSERVATIONS NORTHEAST NORTH DAKOTA  *****

CITY           SKY/WX    TMP DP  RH WIND       PRES   REMARKS
WALHALLA         N/A     68  68 100 N15       29.93S
LANGDON        CLOUDY    66  64  94 N12       29.95R
CAVALIER       CLOUDY    68  64  88 N6        29.91S
GRAFTON        CLOUDY    68  68 100 N9        29.89R
CANDO          CLOUDY    66  64  94 N9        29.96S
FORT TOTTEN    NOT AVBL
ROLLA          FOG       61  61 100 N12       30.00R VSB 1
RUGBY          MOCLDY    63  63 100 CALM      29.96S
 ***** THE ABOVE OBSERVATIONS ARE NON NWS ARE NOT QUALITY
        CONTROLLED AND MAY MIS-REPORT RAIN FOR SNOW...
$$

 *****  OTHER OBSERVATIONS SOUTHEAST NORTH DAKOTA *****

CITY           SKY/WX    TMP DP  RH WIND       PRES   REMARKS
COOPERSTOWN    NOT AVBL
VALLEY CITY    FAIR      66  66 100 W7        29.91R
OAKES          NOT AVBL
GWINNER        CLEAR     68  68 100 W5        29.90R
SHEYENNE NWR     N/A     65  64  98 CALM      29.95
BUFFALO          N/A     69  66  91 CALM        N/A
WYNDMERE       NOT AVBL
 ***** THE ABOVE OBSERVATIONS ARE NON NWS ARE NOT QUALITY
       CONTROLLED AND MAY MIS-REPORT RAIN FOR SNOW...
$$

  *****  WEATHER ACROSS NORTHERN MINNESOTA  *****

CITY           SKY/WX    TMP DP  RH WIND       PRES   REMARKS
FLAG ISLAND    CLOUDY    66  64  94 E3        29.91F
WARROAD        CLOUDY    68  64  88 E3        29.92S
ROSEAU         MOCLDY    66  61  82 NE6       29.91S
HALLOCK        RAIN      66  66 100 NE6       29.89S
THF RVR FALLS  CLOUDY    70  68  94 CALM      29.90R
HALSTAD          N/A     64  63  95 S5          N/A
FOSSTON        PTCLDY    64  59  82 CALM      29.90R
BAUDETTE       CLOUDY    67  63  87 SE3       29.92R
WASKISH        CLOUDY    66  64  94 CALM      29.92S
CROOKSTON      MOCLDY    70  70 100 CALM      29.88S
$$
  *****  WEATHER ACROSS CENTRAL AND WEST MINNESOTA  *****

CITY           SKY/WX    TMP DP  RH WIND       PRES   REMARKS
BEMIDJI        CLOUDY    67  66  94 E5        29.90F
PARK RAPIDS    CLOUDY    68  67  96 SE3       29.90S
WADENA         CLOUDY    66  66 100 CALM      29.90S FOG
DETROIT LAKES  PTCLDY    68  68 100 S5        29.91R
MOORHEAD       CLEAR     70  70 100 CALM      29.88R FOG
FERGUS FALLS   CLEAR     70  66  88 CALM      29.88S FOG
ELBOW LAKE     FAIR      68  67  96 CALM      29.89S
MORRIS MN      FOG       66  66 100 CALM      29.88S VSB 1/4
STAPLES        CLOUDY    66  66 100 CALM      29.90S
WHEATON        CLEAR     66  64  94 CALM      29.90S
$$
  *****  WEATHER ELSEWHERE ACROSS MINNESOTA  *****

CITY           SKY/WX    TMP DP  RH WIND       PRES   REMARKS
DULUTH         DRIZZLE   63  60  90 E6        29.91F FOG
INTRNTL FALLS  CLOUDY    64  60  87 SE5       29.92S
ELY            CLOUDY    63  57  82 CALM      29.95S
CLOQUET        CLOUDY    63  61  94 E7        29.91S FOG
BRAINERD       FOG       64  64 100 E3        29.90S VSB 1
HIBBING        CLOUDY    66  59  78 E5        29.92F
ALEXANDRIA     FOG       67  66  97 CALM      29.91S VSB 1
SAINT CLOUD    PTCLDY    72  70  93 CALM      29.87S FOG
MINNEAPOLIS    PTCLDY    74  73  97 NW5       29.84R
$$

  *****  WEATHER ACROSS SOUTH DAKOTA  *****

CITY           SKY/WX    TMP DP  RH WIND       PRES   REMARKS
SIOUX FALLS    PTCLDY    71  68  90 CALM      29.90S
BROOKINGS      NOT AVBL
WATERTOWN      CLEAR     69  67  93 CALM      29.91S
HURON          PTCLDY    69  65  86 NE3       29.91R
SISSETON         N/A     68  67  96 NW5       29.88R
ABERDEEN       CLEAR     65  63  93 NW3       29.91R
MITCHELL       PTCLDY    69  66  90 CALM      29.91S
PIERRE         CLEAR     67  61  81 E6        29.91S
MOBRIDGE       PTCLDY    70  63  78 NE8       29.91S
RAPID CITY     MOCLDY    63  60  90 NW7       30.00R
$$

  *****  SOME WEATHER IN NEARBY STATES *****

CITY           SKY/WX    TMP DP  RH WIND       PRES   REMARKS
GLASGOW MT     MOCLDY    60  58  92 SE5       30.07R
GREAT FALLS MT CLOUDY    54  49  83 NE14      30.15R
CHEYENNE WY    MOCLDY    63  45  51 NW7       30.20F
SCOTTSBLUFF NE MOCLDY    71  53  52 CALM      30.04S
OMAHA NE       CLOUDY    81  77  88 NW15      29.88R THUNDER
DES MOINES IA  PTCLDY    82  76  81 E5        29.87F
DAVENPORT IA   PTCLDY    75  73  93 E5        29.92R
CHICAGO IL     CLOUDY    75  70  84 SE5       29.94F
EAU CLAIRE WI  MOCLDY    74  72  93 E5        29.86S
LA CROSSE WI   PTCLDY    76  71  85 S8        29.88R
$$

  *****  SOME NATIONAL WEATHER *****

CITY           SKY/WX    TMP DP  RH WIND       PRES   REMARKS
LA GUARDIA NY  LGT RAIN  67  64  90 SE6       30.02F
RALEIGH NC     MOCLDY    78  72  81 CALM      30.03F
ATLANTA GA     PTCLDY    76  70  82 W7        30.13S
NEW ORLEANS LA MOCLDY    78  74  87 S3        30.11F
OKLAHOMA CITY  CLEAR     84  66  54 S12       29.95S
ALBUQUERQUE NM CLOUDY    78  40  25 SW8G17    30.12S
SALT LAKE CITY MOCLDY    69  47  45 SE5       30.00S
LOS ANGELES CA PTCLDY    68  63  84 W7        29.96R
BOISE ID       PTCLDY    70  31  23 SE10      29.89S
SEATTLE WA     PTCLDY    65  51  60 N5        29.99S
$$

*** WEATHER ACROSS MANITOBA...SASKATCHEWAN AND ONTARIO ***
                ***ONTARIO***

CITY           SKY/WX    TMP DP  RH WIND       PRES   REMARKS
GERALDTON      CLOUDY    64  63  94 CALM      30.02S
THUNDER BAY    LGT RAIN  61  59  94 E9        29.98S FOG
SIOUX LOOKOUT  MOCLDY    64  61  88 SE5       29.96S
TORONTO        PTCLDY    66  63  88 N10       29.99R
BIG TROUT LK   CLOUDY    68  61  77 S9        29.95S
PICKLE LAKE    NOT AVBL
DRYDEN         CLOUDY    64  61  88 VRB2      29.96R
KENORA         CLOUDY    64  63  94 E5        29.95S
$$
                *** MANITOBA***

CITY           SKY/WX    TMP DP  RH WIND       PRES   REMARKS
BRANDON        LGT RAIN  61  59  94 NE10      30.01S
DAUPHIN        LGT RAIN  59  59 100 N7        30.03F FOG
ISLAND LAKE    LGT RAIN N/A N/A N/A N6          N/A
PILOT MOUND      N/A    N/A N/A N/A N13G18      N/A
THE PAS        PTCLDY    59  54  82 N8        30.09R
THOMPSON       CLOUDY    52  52 100 N7        30.08R
WINNIPEG       CLOUDY    68  66  94 N8        29.92S
LYNN LAKE      CLEAR     48  46  93 MISG      30.15R
CHURCHILL      CLOUDY    48  46  93 N21G28    30.05R
GILLAM         DRZL/FOG  48  48 100 N13       30.04R VSB 1
$$
                ***SASKATCHEWAN***

CITY           SKY/WX    TMP DP  RH WIND       PRES   REMARKS
ESTEVAN        CLOUDY    61  57  88 N6        30.06R
KINDERSLEY     MOCLDY    52  48  87 N8        30.20R
LLOYDMINSTER   CLOUDY    50  43  76 N5        30.24R
PRINCE ALBERT  MOCLDY    52  50  93 N3        30.18R
REGINA         CLOUDY    59  54  82 NE7       30.10R


USA.gov is the U.S. government's official web portal to all federal, state and local government web resources and services.